Погода Купино

Погода Купино : погода сейчас, прогноз погоды и архив. Всё, что Вы хотите узнать о погоде Купино!

Хотите узнать прогноз погоды Купино? Тогда Вам сюда: Погода Купино

Поиск расширенной информации на нашем сайте:

Другие новости

Новости СМИ2

Главная страница сайта

Новости сайта

03.07.2017

Напоминаем, что на нашем специализированном сайте Метеоцентр.Азия вы можете получить высокодетализированные автоматические прогнозы погоды по пунктам России, СНГ и мира в авиационном формате (включающие направление и скорость ветра, видимость, явления погоды, количество и форму облачности, нижнюю и верхнюю границу облачности).


Погода Купино - сегодня

Время (UTC), дата Ветер
(°,м/с) 
Видим.   Явления Облачность Т
(°С)
Тd
(°С)
f(%) Тe
(°С)
Pmin
(гПа)
dP
(гПа)
Po
(мм)
O2
(г/м3)
Тmin Tmax R s Состояние
почвы
06 26.07.17 240 (ЮЗ) 20000 м    8/6 1000 м верхняя 
[Sc|Ci fib]
+27.4 +14.9 46 +36  1004.5  0.2  744  269           
09 26.07.17 280 (З) 20000 м    10/10 600 м кучево-дожд. 
[Cb calv]
+27.6 +14.7 45 +36  1003.8  -0.6  743  269           
12 26.07.17 тихо ()   20000 м  {ливн. осадки}  10/10 600 м кучево-дожд. 
[Cb calv]
+24.5 +18.3 68 +40  1003.8  -0.2  743  271    +28.8     
15 26.07.17 070 (В) 20000 м    10/10 600 м кучево-дожд. 
[Cb calv]
+21.4 +17.8 80 +36  1004  0.1  743  274           
18 26.07.17 090 (В) 20000 м    10/10 600 м кучево-дожд. 
[Cb calv]
+19.8 +17.4 86 +34  1004.2  0.1  743  275           
21 26.07.17 030 (СВ) 20000 м  {ливн. осадки}  10/10 600 м кучево-дожд. 
[Cb calv]
+20 +17.4 85 +33  1002.7  -1.4  742  275           
00 27.07.17 090 (В) 20000 м  {ливн. осадки}  10/8 600 м верхняя 
[Sc|Ci fib]
+20.5 +17.4 82 +34  1001.5  -1.2  741  274  +18.7        влажная 
03 27.07.17 090 (В) 20000 м    8/3 1000 м средняя, верхняя 
[Sc|Ac cuf|Ci fib]
+24.4 +17.7 66 +39  1000.4  -0.9  741  270           
06 27.07.17 110 (В) 5{12}  20000 м    10/5 1000 м средняя, верхняя 
[Sc|Ac trans|Ci fib]
+27.6 +16.2 50 +39  998.4  -1.9  739  267           
09 27.07.17 140 (ЮВ) 5{11}  20000 м    10/3 1000 м верхняя 
[Cu hum|Ci fib]
+30.2 +18.1 48 +45  996.8  -1.4  738  264           
12 27.07.17 200 (Ю) 20000 м    8/3 1000 м верхняя 
[Cu med, cong|Ci fib]
+30 +18.7 51 +46  995.3  -1.5  737  263    +30.7       
15 27.07.17 300 (СЗ) 4{14}  20000 м    10/8 600 м кучево-дожд., средняя, верхняя 
[Cb calv|Ac cuf|Ci fib]
+20.6 +16.6 78 +33  998.2  2.5  739  273           
18 27.07.17 270 (З) 20000 м    10/10 600 м кучево-дожд. 
[Cb calv]
+17.7 +15.6 88 +28  999.4  740  276           
21 27.07.17 270 (З) 5{11}  20000 м    10/10 600 м 
[Sc]
+16.2 +14.9 92 +25  1000.7  1.2  740  278           
00 28.07.17 250 (З) 20000 м    8/5 600 м средняя, верхняя 
[Sc|Ac trans|Ci fib]
+15 +14 94 +22  1001.2  0.4  741  280  +15        сухая 
06 28.07.17 270 (З) 6-11{13}  20000 м    5/5 1000 м 
[Cu med, cong]
+25.2 +13.8 49 +32  1000.4  -0.7  741  270           
09 28.07.17 280 (З) 5-11{13}  20000 м    4/4 1000 м 
[Cu med, cong]
+26.2 +11.7 40 +30  1000.3  -0.1  740  270           
12 28.07.17 300 (СЗ) 5{11}  20000 м    10/5 600 м кучево-дожд., средняя, верхняя 
[Cb calv|Ac trans|Ci fib]
+23 +11.8 49 +27  1001.5  741  273    +26.9       
15 28.07.17 280 (З) 2{10}  20000 м    4/3 1000 м средняя, верхняя 
[Sc diur, vesp|Ac lent|Ci fib]
+18.1 +14 77 +26  1002  0.4  742  277           
18 28.07.17 280 (З) 20000 м  в посл. час ливневой дождь  10/10 600 м кучево-дожд. 
[Cb calv]
+16.9 +15.4 91 +27  1001.7  -0.4  741  278           
21 28.07.17 290 (З) 20000 м  {ливн. осадки}  10/10 600 м кучево-дожд. 
[Cb calv]
+16.9 +15.7 93 +27  1002.2  0.5  742  278           
00 29.07.17 280 (З) 20000 м  {ливн. осадки}  10/10 600 м кучево-дожд. 
[Cb calv]
+16.8 +15.2 90 +26  1002.7  0.5  742  278  +15.6      влажная 
03 29.07.17 290 (З) 5{10}  20000 м    6/3 1000 м верхняя 
[Sc|Ci fib]
+20.9 +13.7 63 +28  1003.3  0.7  743  275           
06 29.07.17 310 (СЗ) 7-11{13}  20000 м    8/5 1000 м верхняя 
[Sc|Ci fib]
+24.5 +13.4 50 +31  1003.9  0.8  743  272           
09 29.07.17 310 (СЗ) 5-10{12}  20000 м    9/8 1000 м верхняя 
[Sc|Ci fib]
+26.2 +11.1 39 +29  1004.7  0.9  744  271           
Время (UTC), дата Ветер
(°,м/с) 
Видим.   Явления Облачность Т
(°С)
Тd
(°С)
f(%) Тe
(°С)
Pmin
(гПа)
dP
(гПа)
Po
(мм)
O2
(г/м3)
Тmin Tmax R s Состояние
почвы

Для получения пояснительной информации подведите курсор к названию столбца.

ПОГОДА Купино - архив

Всё, что Вы хотите узнать о погоде Купино - удобно и подробно!

Выберите нужную дату (начиная с 1 января 2015* года) и нажмите кнопку "Найти".
Будут отображены архивные сводки погоды по пункту Купино, начиная с указанной даты.


Отображать данные в формате CSV (для использования в таблицах Excel)


Внимание! Наш архив погоды предназначен исключительно для личного некоммерческого использования в познавательных целях. Если Вам необходимы официальные справки о состоянии погоды (для производственных, юридических, коммерческих и т.п. целей), обращайтесь в органы Росгидромета.

*Примечание: данная дата относится к архиву по метеостанциям СССР (Россия, СНГ, Балтия).
Архив по метеостанциям Зарубежной Европы и Азии (кроме Китая) хранится 10 дней, по другим регионам земного шара (Китай, Африка, Америка, Австралия, Океания) - 1 день.

Купино - район местоположения метеостанции


Название, широта, долгота, высота метеостанции:
Купино 54.4°ш. 77.3°д. 115 м над ур. моря [Российская Федерация]

Дополнительная информация

В oтличие oт бoльшинства пoгoдных сайтoв мы публикуем пoдрoбную метеoинфoрмацию в детальнoм прoфессиoнальнoм фoрмате.

Характеристики температуры и влажнoсти вoздуха измеряются на высoте 2 м в тени вдали oт зданий и деревьев.
Скoрoсть ветра измеряется на высoте 10 м (на урoвне рoста челoвека скoрoсть ветра ниже в 1.5-2 раза). Если метеoстанция нахoдится в гoрoде или в лесу, тo скoрoсть ветра занижена на 2-4 м/с пo сравнению с oткрытым местoм. Скoрoсть ветра над акватoриями крупных рек и oзёр, а также на вершинах хoлмoв на 2-5 м/с выше, чем в oбычных услoвиях.
Атмoсфернoе давление в разных тoчках местнoсти мoжет значительнo oтличаться oт давления на метеoстанции, в зависимoсти oт услoвий рельефа (при пoдъёме на 10 м давление пoнижается примернo на 1 мм рт.ст.).